TimeEST,TemperatureF,Dew PointF,Humidity,Sea Level PressureIn,VisibilityMPH,Wind Direction,Wind SpeedMPH,Gust SpeedMPH,PrecipitationIn,Events,Conditions,WindDirDegrees,DateUTC
12:54 AM,23.0,21.0,92,30.26,7.0,Calm,Calm,-,N/A,,Clear,0,2012-12-14 05:54:00
1:54 AM,21.0,19.0,92,30.25,7.0,Calm,Calm,-,N/A,,Clear,0,2012-12-14 06:54:00
2:54 AM,19.9,19.0,96,30.25,7.0,Calm,Calm,-,N/A,,Clear,0,2012-12-14 07:54:00
3:54 AM,21.0,19.0,92,30.23,6.0,Calm,Calm,-,N/A,,Clear,0,2012-12-14 08:54:00
4:54 AM,19.9,17.1,89,30.22,7.0,Calm,Calm,-,N/A,,Clear,0,2012-12-14 09:54:00
5:54 AM,19.0,17.1,92,30.21,8.0,Calm,Calm,-,N/A,,Clear,0,2012-12-14 10:54:00
6:54 AM,19.0,16.0,88,30.22,7.0,Calm,Calm,-,N/A,,Clear,0,2012-12-14 11:54:00
7:54 AM,19.9,17.1,89,30.21,6.0,Calm,Calm,-,N/A,,Clear,0,2012-12-14 12:54:00
8:54 AM,24.1,21.9,91,30.20,4.0,Calm,Calm,-,N/A,,Clear,0,2012-12-14 13:54:00
9:54 AM,30.0,25.0,82,30.19,9.0,Calm,Calm,-,N/A,,Clear,0,2012-12-14 14:54:00
10:54 AM,35.1,26.1,70,30.16,10.0,Calm,Calm,-,N/A,,Clear,0,2012-12-14 15:54:00
11:54 AM,39.0,24.1,55,30.13,10.0,WSW,6.9,-,N/A,,Clear,240,2012-12-14 16:54:00
12:54 PM,42.1,21.0,43,30.10,10.0,WNW,11.5,18.4,N/A,,Clear,300,2012-12-14 17:54:00
1:54 PM,42.1,21.9,45,30.11,10.0,WNW,12.7,17.3,N/A,,Clear,300,2012-12-14 18:54:00
2:54 PM,41.0,25.0,53,30.13,10.0,NW,9.2,18.4,N/A,,Clear,310,2012-12-14 19:54:00
3:54 PM,39.0,25.0,57,30.13,10.0,WNW,5.8,-,N/A,,Partly Cloudy,290,2012-12-14 20:54:00
5:54 PM,37.9,27.0,65,30.17,10.0,Variable,6.9,19.6,N/A,,Mostly Cloudy,0,2012-12-14 22:54:00
6:54 PM,37.9,28.0,68,30.17,10.0,NW,8.1,16.1,N/A,,Overcast,310,2012-12-14 23:54:00
7:02 PM,37.4,28.4,70,30.13,10.0,NW,6.9,17.3,N/A,,Overcast,310,2012-12-15 00:02:00
7:54 PM,37.9,28.0,68,30.18,10.0,WNW,3.5,-,N/A,,Overcast,300,2012-12-15 00:54:00
8:54 PM,37.9,28.0,68,30.19,10.0,WNW,9.2,-,N/A,,Overcast,300,2012-12-15 01:54:00
9:54 PM,37.0,28.0,70,30.18,10.0,WNW,6.9,-,N/A,,Overcast,300,2012-12-15 02:54:00
10:54 PM,37.0,28.0,70,30.17,10.0,WNW,9.2,-,N/A,,Overcast,300,2012-12-15 03:54:00
11:54 PM,37.0,27.0,67,30.17,10.0,Variable,5.8,-,N/A,,Overcast,0,2012-12-15 04:54:00